Location: D�pe
(52.6057°N, 8.1808°E)
Time: 07:41:11
(UTC+00:00)

FALCON 9 DEB - Pass Details

Date: 29 October 2020
Orbit: 427 x 438 km, 53.0° (Epoch: 01 December)

Event Time Altitude Azimuth Distance (km) Brightness Sun altitude
Rises 18:27:00 0° 285° (WNW) 2,400 8.3 -22.4°
Reaches altitude 10° 18:29:11 10° 278° (W) 1,529 7.0 -22.8°
Enters shadow 18:32:01 38° 227° (SW) 677 4.3 -23.2°
